AO-07 1 07530U 74089B 15163.54243900 -.00000028 00000-0 96655-4 0 9992 2 07530 101.5198 139.1977 0011691 314.3344 159.4987 12.53614744856671 FO-29 1 24278U 96046B 15163.50282615 -.00000003 00000-0 30301-4 0 9998 2 24278 098.5397 132.9286 0351516 082.9709 026.5850 13.53053054929390 SO-33 1 25509U 98061B 15160.75147438 .00000261 00000-0 40254-4 0 9995 2 25509 031.4330 293.6857 0347860 008.1656 352.4450 14.30006988868353 RS-22 1 27939U 03042A 15163.50483599 .00000968 00000-0 18454-3 0 9996 2 27939 097.8420 325.6042 0013937 045.3492 314.8843 14.66059848625504 HO-68 1 36122U 09072B 15163.83506211 -.00000060 00000-0 -43517-4 0 9996 2 36122 100.1955 208.7983 0008088 126.4693 233.7165 13.16327547263882 AO-73 1 39444U 13066AE 15161.74030498 .00002800 00000-0 36366-3 0 9996 2 39444 097.7309 224.7349 0060686 155.5221 204.8894 14.80216239 82460 EO-79 1 40025U 14033R 15163.77546686 .00002161 00000-0 24638-3 0 9993 2 40025 097.9533 064.0353 0012359 192.4934 167.5977 14.87142090 53143 UO-11 1 14781U 84021B 15161.75642138 .00000959 00000-0 12608-3 0 9999 2 14781 097.8020 218.9968 0010139 092.3722 267.8652 14.82404654681077 AO-16 1 20439U 90005D 15161.09726944 .00000186 00000-0 84592-4 0 9994 2 20439 098.5403 097.3965 0010805 175.3830 306.4029 14.32546482325721 LO-19 1 20442U 90005G 15163.38489369 .00000156 00000-0 73078-4 0 9993 2 20442 098.5114 099.2221 0012138 157.2979 202.8744 14.32739677326256 AO-27 1 22825U 93061C 15163.86632103 .00000147 00000-0 74467-4 0 9997 2 22825 098.7082 113.9741 0007807 328.7847 090.7543 14.29884629132324 IO-26 1 22826U 93061D 15163.00281523 .00000162 00000-0 79835-4 0 9991 2 22826 098.7025 113.2785 0008228 322.4033 037.6573 14.30201535132345 GO-32 1 25397U 98043D 15163.48021968 .00000082 00000-0 54557-4 0 9994 2 25397 098.5192 114.0696 0001500 032.0457 102.6567 14.23548386879124 NO-44 1 26931U 01043C 15161.15891994 .00000118 00000-0 77257-4 0 9991 2 26931 067.0499 195.2233 0005893 267.7374 092.3053 14.30317604714793 SO-50 1 27607U 02058C 15163.49348850 .00000882 00000-0 14568-3 0 9999 2 27607 064.5543 213.1317 0081254 289.2094 070.0228 14.74743306670598 CO-55 1 27844U 03031E 15161.01540047 .00000318 00000-0 16442-3 0 9999 2 27844 098.6949 169.6444 0008977 328.5092 084.9378 14.21805682619424 CO-57 1 27848U 03031J 15163.51183721 .00000319 00000-0 16607-3 0 9996 2 27848 098.7047 172.0102 0008899 328.6118 160.9084 14.21453651619682 AO-51 1 28375U 04025K 15160.81478351 .00000291 00000-0 98972-4 0 9997 2 28375 098.2920 101.4701 0082667 352.8075 007.1922 14.41664690575425 CP3 1 31129U 07012N 15163.46820825 .00001605 00000-0 35456-3 0 9995 2 31129 097.9800 129.4334 0095918 329.3758 144.0434 14.55827483432439 CO-65 1 32785U 08021C 15163.05793050 .00002225 00000-0 25462-3 0 9994 2 32785 097.6495 206.8097 0015079 084.9558 294.3488 14.86869663385472 PRISM 1 33493U 09002B 15163.80528425 .00003538 00000-0 34336-3 0 9994 2 33493 098.2500 000.9966 0016093 349.8245 010.2660 14.93260772345921 SOHLA-1 1 33496U 09002E 15163.40960422 .00000659 00000-0 11485-3 0 9991 2 33496 098.2112 291.2502 0006558 167.7087 238.4834 14.71366297342479 TISAT-1 1 36799U 10035E 15163.85288844 .00004282 00000-0 46625-3 0 9998 2 36799 098.0159 264.1770 0012264 215.8242 261.2744 14.88503293266311 STUDSAT 1 36801U 10035G 15163.43193436 .00025851 00000-0 15007-2 0 9992 2 36801 098.0601 282.6048 0007279 156.0690 245.9073 15.12092677267258 ALMASAT-1 1 38078U 12006B 15163.53657181 .00026628 35100-5 44359-3 0 9993 2 38078 069.4570 252.1614 0483229 263.9229 090.6672 14.78602698174352 CUBEBUG-1 1 39153U 13018D 15163.75535548 .00001832 00000-0 25338-3 0 9990 2 39153 098.0174 248.1321 0015886 267.0124 092.9269 14.79229601114827 ESTCUBE-1 1 39161U 13021C 15163.78032341 .00001097 00000-0 18620-3 0 9998 2 39161 098.0707 246.7464 0008977 337.9178 022.1642 14.71165730112595 DUCHIFAT-1 1 40021U 14033M 15163.66910606 .00003866 00000-0 42651-3 0 9992 2 40021 097.9551 064.2563 0013001 193.2595 166.8281 14.88019059 53139 NANOSATCBR1 1 40024U 14033Q 15163.72522330 .00003249 00000-0 36319-3 0 9994 2 40024 097.9535 064.1056 0012217 191.9377 168.1551 14.87605294 53137 DTUSAT-2 1 40030U 14033W 15163.66505547 .00002732 00000-0 31275-3 0 9997 2 40030 097.9521 063.6691 0011980 185.3529 174.7560 14.86763731 53111 ANTELSAT 1 40034U 14033AA 15163.76179140 .00001475 00000-0 23236-3 0 9999 2 40034 097.9444 055.9051 0060856 132.9930 227.6413 14.72708258 52643 MET-2/21 1 22782U 93055A 15163.37564941 .00000019 00000-0 40973-5 0 9996 2 22782 082.5502 247.4847 0021672 338.0300 067.1798 13.83771710 99932 OKEAN-4 1 23317U 94066A 15163.52700494 .00001759 00000-0 19470-3 0 9994 2 23317 082.5390 089.8101 0019947 350.2729 136.0059 14.86686166116622 NOAA-14 1 23455U 94089A 15161.47508141 .00000036 00000-0 41854-4 0 9998 2 23455 098.7523 243.0656 0010602 099.0645 323.3976 14.14043257 54589 NOAA-15 1 25338U 98030A 15161.48917792 .00000231 00000-0 11654-3 0 9998 2 25338 098.7721 160.1204 0010509 181.5760 178.5388 14.25628991887880 RESURS 1 25394U 98043A 15163.00908226 .00000008 00000-0 21741-4 0 9997 2 25394 098.4646 118.2782 0000554 354.6514 047.0567 14.24458384879548 FENGYUN1 1 25730U 99025A 15161.46925356 .00001253 00000-0 69000-3 0 9995 2 25730 098.9428 126.3322 0018789 157.8935 351.9865 14.13372698828109 OKEAN-0 1 25860U 99039A 15163.02817774 .00000844 00000-0 12995-3 0 9998 2 25860 098.0935 131.0671 0001419 067.5246 340.7658 14.76051031855224 NOAA-16 1 26536U 00055A 15161.43912721 .00000024 00000-0 37001-4 0 9996 2 26536 098.9428 227.4239 0009520 249.6227 110.3922 14.13097670758704 NOAA-17 1 27453U 02032A 15161.47821627 .00000097 00000-0 59140-4 0 9998 2 27453 098.3393 147.8069 0011204 196.8390 163.2420 14.24885867673701 NOAA-18 1 28654U 05018A 15161.47333204 .00000223 00000-0 14688-3 0 9996 2 28654 099.1833 153.9521 0013989 344.1170 015.9560 14.12204824518127 NOAA-19 1 33591U 09005A 15161.43427460 .00000245 00000-0 15836-3 0 9996 2 33591 098.9893 111.2964 0013768 184.7844 175.3198 14.11942473326533 HUBBLE 1 20580U 90037B 15161.56304120 .00001995 00000-0 11695-3 0 9998 2 20580 028.4687 197.8116 0003101 162.0957 330.1794 15.07448123178817 ISS 1 25544U 98067A 15161.91278752 .00014896 00000-0 22259-3 0 9996 2 25544 051.6439 115.3593 0004556 036.1265 003.4508 15.55245757947062 CO-58 1 28895U 05043F 15161.76256686 .00000954 00000-0 19537-3 0 9990 2 28895 097.8215 349.8704 0016131 321.2684 038.7361 14.62787755512658 FALCON 1 30776U 07006E 15161.12756417 .00012148 00000-0 48727-3 0 9990 2 30776 035.4277 045.3910 0003146 261.4560 257.4946 15.24243861455224 MAST 1 31126U 07012K 15161.87638870 .00000917 00000-0 20734-3 0 9990 2 31126 097.9598 130.1945 0089970 316.3221 072.2670 14.56060487432572 CAPE1 1 31130U 07012P 15161.37661324 .00001317 00000-0 29446-3 0 9994 2 31130 097.9816 126.9066 0096843 337.8405 021.8621 14.55495656431895 COMPASS 1 32787U 08021E 15163.44195702 .00003672 00000-0 37879-3 0 9991 2 32787 097.6519 211.2581 0014659 072.2158 288.0658 14.90716137385806 AAUSAT2 1 32788U 08021F 15163.77466353 .00004207 00000-0 42213-3 0 9994 2 32788 097.6531 213.0864 0014068 068.6193 291.6526 14.91760742385948 DO-64 1 32789U 08021G 15162.24530508 .00010195 00000-0 82632-3 0 9992 2 32789 097.6716 222.4116 0011776 063.4017 337.3047 14.99831614386198 CO-66 1 32791U 08021J 15163.52079464 .00003144 00000-0 34107-3 0 9996 2 32791 097.6514 209.1958 0015495 077.4427 282.8523 14.88771370385625 RS-30 1 32953U 08025A 15163.88959410 .00000010 00000-0 -13620-7 0 9998 2 32953 082.5054 336.9159 0019743 089.4231 270.9117 12.43060717320075 METEOR-M 1 35865U 09049A 15163.78580990 .00000132 00000-0 78896-4 0 9999 2 35865 098.5011 204.2906 0003525 117.1162 294.6860 14.22030697297580 RS-38 1 35869U 09049E 15163.73932704 .00000030 00000-0 32591-4 0 9991 2 35869 098.4925 203.8768 0005285 120.1122 240.0572 14.22297700297623 JUGNU 1 37839U 11058B 15162.50412219 .00000421 00000-0 82815-4 0 9999 2 37839 019.9607 236.9726 0019037 344.4534 132.0616 14.12470605189418 SRMSAT 1 37841U 11058D 15163.57137612 .00000412 00000-0 81762-4 0 9991 2 37841 019.9718 257.1106 0011754 282.5221 197.6270 14.10481957189293 RAX-2 1 37853U 11061D 15163.53294693 .00009447 00000-0 57482-3 0 9995 2 37853 101.7130 012.2854 0196642 089.5388 328.7607 14.96081287196412 AUBIESAT 1 37854U 11061E 15160.57568851 .00009589 00000-0 56517-3 0 9992 2 37854 101.7196 011.3385 0188984 093.2430 333.3086 14.98163712196086 HRBE 1 37855U 11061F 15163.04121830 .00008926 00000-0 53366-3 0 9993 2 37855 101.7187 013.6393 0194115 088.2809 274.0620 14.97044532196383 HORYU-2 1 38340U 12025D 15163.50070214 .00002166 00000-0 33490-3 0 9990 2 38340 098.3126 133.3080 0013320 108.6150 251.6506 14.74297835164845 RS-40 1 38735U 12041C 15163.11964212 .00000040 00000-0 21992-3 0 9996 2 38735 082.4795 063.1426 0016270 187.5866 172.4973 12.42568047130288 PROITERES 1 38756U 12047B 15163.79208928 .00000745 00000-0 11636-3 0 9990 2 38756 098.2196 263.0025 0011312 317.6754 042.3596 14.75821955148352 BEESAT-3 1 39134U 13015E 15161.73459666 .00008728 00000-0 50884-3 0 9993 2 39134 064.8731 078.1616 0031208 252.6056 107.1654 15.12117672117725 BEESAT-2 1 39136U 13015G 15163.83541284 .00007263 00000-0 44417-3 0 9994 2 39136 064.8746 073.8055 0031898 251.3324 108.4335 15.10532004118001 ZACUBE-1 1 39417U 13066B 15161.63860232 .00002092 00000-0 27672-3 0 9994 2 39417 097.7308 224.4014 0061232 156.6688 203.7325 14.79692968 83667 TRITON-1 1 39427U 13066M 15163.02471383 .00001622 00000-0 27219-3 0 9990 2 39427 097.7157 214.0802 0115855 182.8999 177.1548 14.66630671 83106 DELFIN3XT 1 39428U 13066N 15163.43483039 .00003045 00000-0 51109-3 0 9993 2 39428 097.7159 212.7812 0124452 186.4599 173.5008 14.65359130 83045 GOMX-1 1 39430U 13066Q 15163.81886994 .00001065 00000-0 20623-3 0 9992 2 39430 097.7093 207.2472 0153013 203.0765 156.3520 14.58044561 82747 MO-76 1 39436U 13066W 15163.14922007 .00030687 00000-0 20549-2 0 9998 2 39436 097.7463 239.2688 0024146 122.1043 238.2532 15.06604385 84736 LO-74 1 39440U 13066AA 15163.38422929 .00002271 00000-0 33045-3 0 9991 2 39440 097.7250 221.4586 0082725 162.3906 198.0202 14.74516802 83620 PUCPSAT-1 1 39442U 13066AC 15161.83468176 .00003298 00000-0 35647-3 0 9995 2 39442 097.7397 232.0013 0034258 142.3065 218.0562 14.88564028 82921 SPROUT 1 39770U 14029E 15163.12474208 .00001535 00000-0 19163-3 0 9993 2 39770 097.8698 260.0101 0009159 210.0992 149.9664 14.83803659 56885 POPSAT-HIP1 1 40028U 14033U 15163.81330555 .00001793 00000-0 20618-3 0 9991 2 40028 097.9551 064.1468 0013708 191.0541 169.0404 14.87001219 53130 EO-80 1 40032U 14033Y 15163.67351622 .00002460 00000-0 28273-3 0 9995 2 40032 097.9528 063.6905 0011937 185.5571 174.5514 14.86691271 53115 VELOX-1 1 40057U 14034E 15163.79470529 .00001946 00000-0 29149-3 0 9995 2 40057 098.2152 241.8240 0009923 250.2685 109.7479 14.75819760 51233 DAURIA DX 1 1 40071U 14037C 15163.53142166 .00000891 00000-0 12416-3 0 9996 2 40071 098.3557 234.7529 0007376 252.8505 107.1903 14.80387215 50109 UKUBE-1 1 40074U 14037F 15163.43839320 .00001937 00000-0 25030-3 0 9991 2 40074 098.3581 235.4224 0003530 257.6179 102.4657 14.82176881 50131 HODOYOSHI-1 1 40299U 14070B 15163.47778310 .00005037 00000-0 24119-3 0 9994 2 40299 097.4553 245.0491 0014023 143.7979 338.0165 15.19314472 33104 CHUBUSAT-1 1 40300U 14070C 15163.47731747 .00005784 00000-0 28913-3 0 9995 2 40300 097.4524 244.3514 0023243 147.3712 268.7455 15.17597642 33068 QSAT-EOS 1 40301U 14070D 15163.46388403 .00010233 00000-0 51451-3 0 9990 2 40301 097.4486 243.7021 0033099 149.1007 339.4166 15.16946817 33021 TSUBAME 1 40302U 14070E 15162.77917139 .00005844 00000-0 32795-3 0 9990 2 40302 097.4463 241.9496 0044212 154.9052 300.7691 15.12885439 32858 FIREBIRD FU3 1 40377U 15003B 15163.72944897 .00006800 00000-0 34231-3 0 9996 2 40377 099.1183 196.3760 0156922 268.0530 090.2716 15.07486651 19878 FIREBIRD FU4 1 40378U 15003C 15163.66099281 .00006723 00000-0 33804-3 0 9997 2 40378 099.1183 196.3008 0157167 268.2423 090.0793 15.07504533 19861 GRIFEX 1 40379U 15003D 15163.76217986 .00006673 00000-0 34126-3 0 9995 2 40379 099.1204 196.3445 0158164 269.2445 089.0653 15.06827802 19874 LAMBDA-SAT 1 40458U 98067GB 15136.30676273 .20783109 12527-4 14817-2 0 9995 2 40458 051.6075 233.7697 0010355 318.5347 043.1720 16.39926603 21161 NO-84 1 40652U 15163.48002674 .00022199 00000-0 57830-3 0 00365 2 40652 054.9954 241.0342 0246249 238.4037 119.2655 15.13498713003469 LIGHTSAIL-1 1 40658U 15163.50698574 .06533945 00000-0 73484-1 0 00367 2 40658 054.9944 240.6029 0141897 243.9136 114.1430 15.46659033003471 NO-83 1 40661U 15163.28335891 .00015104 00000-0 39963-3 0 00403 2 40661 055.0066 241.9489 0246943 237.8384 119.8464 15.13254805003438 /EX